Regional Weather Roundup
Issued by NWS

Home | Current Version | Previous Version | Graphics & Text | Print | Product List | Glossary On
Versions: 1 2 3 4 5 6 7 8 9 10 11 12 13 14 15 16 17 18 19 20 21 22 23 24 25 26 27 28 29 30 31 32 33 34 35 36 37 38 39 40 41 42 43 44 45 46 47 48 49 50
098
ASUS43 KMKX 092221
RWRWI

WISCONSIN REGIONAL WEATHER ROUNDUP
NATIONAL WEATHER SERVICE MILWAUKEE/SULLIVAN WI
400 PM CST TUE FEB 09 2016

NOTE: "FAIR" INDICATES FEW OR NO CLOUDS BELOW 12,000 FEET WITH NO
SIGNIFICANT WEATHER AND/OR OBSTRUCTIONS TO VISIBILITY.

WIZ001-002-006>008-014>016-023>028-092300-
NORTHWEST WISCONSIN

CITY           SKY/WX    TMP DP  RH WIND       PRES   REMARKS
SUPERIOR ARPT  SUNNY     13  -3  48 N15G22    30.11R WCI  -2
ASHLAND        PTSUNNY   12   2  64 NW10      30.04R WCI  -1
HAYWARD        MOSUNNY   11  -1  58 VRB6      30.01R WCI   1
SIREN          SUNNY     15  -4  42 N14G20    30.07R WCI   0
CUMBERLAND     SUNNY     14  -4  44 NW18      30.01R WCI  -3
RICE LAKE      SUNNY     15  -3  46 NW10G17   30.03R WCI   2
CHETEK         SUNNY     13  -1  51 N6G18     30.02R WCI   4
LADYSMITH      CLOUDY    11   2  68 NW14      30.00R WCI  -5
EAU CLAIRE     SUNNY     14  -1  51 NW12      30.02R WCI   0
MENOMONIE      SUNNY     17  -2  43 NW14G23   30.03R WCI   3
NEW RICHMOND   SUNNY     14   0  53 NW16G23   30.07R WCI  -2
OSCEOLA        SUNNY     15   0  52 NW10G21   30.12R WCI   2
$$

WIZ003>005-009-010-017-018-092300-
NORTH CENTRAL WISCONSIN

CITY           SKY/WX    TMP DP  RH WIND       PRES   REMARKS
MANITOWISH WTR CLOUDY     9   2  73 N12G21    29.90R HAZE    WCI  -6
ARBOR VITAE    CLOUDY    11   4  73 N17G24    29.88R HAZE    WCI  -6
WOODRUFF       CLOUDY    11   4  73 N17G24    29.88R HAZE    WCI  -6
RHINELANDER    CLOUDY    11   1  64 N9G16     29.86R WCI  -2
EAGLE RIVER    LGT SNOW  10   2  72 N9G22     29.86R WCI  -3
LAND O LAKES   LGT SNOW  10   4  75 N15G25    29.87R VSB 1   WCI  -7
PHILLIPS       CLOUDY     8   0  69 NW12G17   29.93R WCI  -7
TOMAHAWK       CLOUDY    11   2  66 NW13      29.90R WCI  -4
MEDFORD        CLOUDY    10   1  66 NW17      29.91R HAZE    WCI  -7
MERRILL        CLOUDY    13   3  64 N14G22    29.90R WCI  -2
$$

WIZ029-030-035-036-043>047-092300-
CENTRAL WISCONSIN

CITY           SKY/WX    TMP DP  RH WIND       PRES   REMARKS
WAUSAU         CLOUDY    16   3  56 N17G24    29.87R WCI   0
MOSINEE        CLOUDY    14   5  67 NW15G29   29.89  WCI  -1
MARSHFIELD     SUNNY     13   0  56 NW20G25   29.91R WCI  -5
STEVENS POINT  CLOUDY    14   3  62 NW12G18   29.89R WCI   0
WAUPACA        CLOUDY    20   7  56 NW15      29.88R WCI   7
WAUTOMA        CLOUDY    17   5  59 NW16      29.90R WCI   2
WISC RAPIDS    CLOUDY    14   3  61 N17G29    29.93R WCI  -3
CAMP DOUGLAS   PTSUNNY   14   3  62 NW16      29.95R WCI  -2
$$

WIZ011>013-019>022-031-037>040-048>050-092300-
NORTHEAST WISCONSIN

CITY           SKY/WX    TMP DP  RH WIND       PRES   REMARKS
ANTIGO         CLOUDY    12   4  71 N17       29.84R WCI  -5
SHAWANO        CLOUDY    20   5  53 N17G24    29.87R WCI   5
OCONTO         CLOUDY    16   9  74 N9        29.86R WCI   5
STURGEON BAY   PTSUNNY   16   7  67 NW18      29.85R WCI  -1
GREEN BAY      CLOUDY    18   7  62 NW12      29.85R WCI   5
MANITOWOC      FLURRIES  18   9  68 N16G22    29.84R WCI   3
APPLETON       PTSUNNY   18   7  62 NW15G22   29.82  WCI   3
CLINTONVILLE   LGT SNOW  19  10  68 NW12G21   29.87R WCI   7
OSHKOSH        CLOUDY    18   7  62 N16G24    29.85R WCI   3
$$

WIZ032>034-041-042-053>061-092300-
SOUTHWEST WISCONSIN

CITY           SKY/WX    TMP DP  RH WIND       PRES   REMARKS
LA CROSSE      SUNNY     15   0  51 NW15      30.02R WCI   0
SPARTA         SUNNY     14  -1  51 NW12      30.00R WCI   1
VIROQUA        SUNNY     12  -1  54 NW16      29.95R WCI  -4
BOSCOBEL       SUNNY     18   2  49 NW14G23   29.99R WCI   4
PRAIRIE DU CHI SUNNY     15  -2  46 NW16G25   30.01R WCI   0
PLATTEVILLE    MOSUNNY   15   4  62 NW16      29.95R WCI  -1
$$

WIZ056-057-062-063-064-067-068-092300-
SOUTH CENTRAL WISCONSIN

CITY           SKY/WX    TMP DP  RH WIND       PRES   REMARKS
REEDSBURG      CLOUDY    14   2  59 NW13G21   29.93R WCI   0
BARABOO/DELLS  CLOUDY    15   2  57 NW12G17   29.91R WCI   2
LONE ROCK      PTSUNNY   16   1  51 NW14      29.97R WCI   2
MINERAL POINT  MOSUNNY   18   3  53 NW12G20   29.92R WCI   5
MADISON        PTSUNNY   15   4  61 NW13      29.90R WCI   1
MIDDLETON      CLOUDY    17   6  63 NW13G22   29.91R WCI   3
WATERTOWN      CLOUDY    16   7  68 NW10      29.87R WCI   4
MONROE         CLOUDY    16   5  62 NW9G21    29.90R WCI   4
JANESVILLE     CLOUDY    18   9  68 NW13G18   29.90R HAZE    WCI   4
$$

WIZ051-052-058>065-066-070>072-092300-
SOUTHEAST WISCONSIN

CITY           SKY/WX    TMP DP  RH WIND       PRES   REMARKS
MILWAUKEE      FLURRIES  18   7  62 NW13G24   29.86R WCI   5
WAUKESHA       CLOUDY    14   7  73 NW16      29.86R WCI  -2
MILWAUKEE/TIMM LGT SNOW  18   7  62 NW14G20   29.86R WCI   4
RACINE         CLOUDY    17   7  64 NW14      29.88R WCI   3
BURLINGTON     MOSUNNY   15   6  66 NW10G22   29.88R WCI   2
KENOSHA        CLOUDY    17   7  64 NW14      29.86R WCI   3
FOND DU LAC    MIX PCPN  18  10  71 NW15      29.86R WCI   4
SHEBOYGAN      LGT SNOW  18  10  71 NW12      29.85R WCI   5
WEST BEND      FLURRIES  18   9  68 NW13      29.85R WCI   4
JUNEAU         FLURRIES  16   7  68 NW10G17   29.87R WCI   3
$$

LSZ147-162-092300-
LAKE SUPERIOR

STATION/POSITION TIME  TEMP    WIND        PRES    WAVE
                       AIR SEA DIR/SP/G            HT/PER
                 (UTC) (F)     (DEG/KT/KT) (MB)    (FT/S)
DEVILS ISLAND    2200   11     350/ 18/ 20 1019.2R
SAXON HARBOR     2100   12                 1016.3S
$$

LMZ867-665-643>646-092300-
LAKE MICHIGAN

STATION/POSITION TIME  TEMP    WIND        PRES    WAVE
                       AIR SEA DIR/SP/G            HT/PER
                 (UTC) (F)     (DEG/KT/KT) (MB)    (FT/S)
CHAMBERS ISLAND  2100   18     320/ 24/ 28 1009.1R
ALGOMA LAKESHORE 2141          320/ 18/ 23   N/A
KEWAUNEE LAKESHO 2100   17     330/  9/ 17 1008.8R
SHEBOYGAN LAKESH 2200   18     320/ 16/ 21 1012.0R
PORT WASHINGTON  2140   18     290/ 13/ 19 1011.9R
MILWAUKEE LAKESH 2210   17     300/ 12/ 16   N/A
KENOSHA   LAKESH 2200   17     310/ 11/ 19 1011.5R
$$

TC  - TEMPERATURE IN CELSIUS
VSB - VISIBILITY IN STATUTE MILES
WCI - WIND CHILL INDEX
HX  - HEAT INDEX





USA.gov is the U.S. government's official web portal to all federal, state and local government web resources and services.